#timestamp,LO_Frequency,Hit,StdDev 
1508284815.9,286047000.3,N
1508284835.7,286047005.1,N
1508284855.5,286047007.1,N
1508284875.4,286047006.3,N
1508284895.2,286047003.3,N
1508284915.0,286047003.7,N
1508284915.9,286047003.7,N
1508284935.8,286047004.0,N
1508284955.6,286047002.9,N
1508284975.4,286047006.3,N
1508284995.3,286047002.9,N
1508285015.1,286047003.5,N
1508285035.8,286047002.0,N
1508285055.7,286047002.4,N
1508285075.5,286046998.6,N
1508285095.3,286047000.0,N
1508285115.2,286046999.0,N
1508285135.9,286046997.2,N
1508285155.7,286046995.0,N
1508285175.6,286046997.9,N
1508285195.4,286046997.7,N
1508285215.2,286046999.5,N
1508285235.0,286046996.9,N
1508285236.0,286046996.9,N
1508285255.8,286046993.3,N
1508285275.6,286046999.4,N
1508285295.4,286046998.7,N
1508285315.3,286046993.3,N
1508285335.1,286046995.9,N
1508285355.8,286046995.6,N
1508285375.7,286046996.3,N
1508285395.5,286046996.6,N
1508285415.3,286046999.6,N
1508285435.2,286046995.1,N
1508285455.9,286046995.2,N
1508285475.7,286046993.4,N
1508285495.6,286046994.3,N
1508285515.4,286046994.3,N
1508285535.2,286046993.1,N
1508285555.1,286046990.3,N
1508285556.0,286046990.3,Y
1508285575.8,286046994.2,P
1508285595.6,286046994.5,P
1508285615.5,286046998.6,N
1508285635.3,286046995.4,N
1508285655.1,286046998.4,N
1508285675.9,286046996.7,N
1508285695.7,286046999.3,N
1508285715.5,286046998.4,N
1508285735.4,286046997.1,N
1508285755.2,286046998.9,N
1508285775.0,286046994.3,Y
1508285775.9,286046994.3,P
1508285795.8,286046996.6,N
1508285815.6,286047004.2,P
1508285835.4,286047007.4,N
1508285855.3,286047006.3,N
1508285875.1,286047005.6,N
1508285876.0,286047005.6,N
1508285895.8,286047007.4,N
1508285915.7,286047009.0,N
1508285935.5,286047006.9,N
1508285955.3,286047006.5,N
1508285975.1,286047010.6,N
1508285995.9,286047007.7,N
1508286015.7,286047011.4,N
1508286035.5,286047012.0,N
1508286055.4,286047009.3,N
1508286075.2,286047010.6,N
1508286095.0,286047008.5,N
1508286095.9,286047008.5,N
1508286115.8,286047007.6,N
1508286135.6,286047009.0,N
1508286155.4,286047012.3,N
1508286175.3,286047009.5,N
1508286195.1,286047011.2,N
1508286196.0,286047011.2,N
1508286215.8,286047008.4,N
1508286235.7,286047007.8,N
1508286255.5,286047006.9,N
1508286275.3,286047005.8,N
1508286295.2,286047008.0,N
1508286315.9,286047008.0,N
1508286335.7,286047008.2,N
1508286355.6,286047009.5,Y
1508286375.4,286046998.5,P
1508286395.2,286047005.8,N
1508286415.0,286047004.2,N
1508286416.0,286047004.2,N
1508286435.8,286047004.9,N
1508286455.6,286047006.6,N
1508286475.4,286047005.5,N
1508286495.3,286047003.0,N
1508286515.1,286047009.2,Y
1508286535.9,286047006.7,P
1508286555.7,286047006.9,P
1508286575.5,286047002.9,N
1508286595.3,286047002.1,N
1508286615.2,286047002.8,N
1508286635.0,286047002.3,N
1508286635.9,286047002.3,N
1508286655.7,286047000.2,N
1508286675.6,286046998.1,N
1508286695.4,286047003.9,N
1508286715.2,286046999.9,N
1508286735.1,286046999.3,N
1508286736.0,286046999.3,N
1508286755.8,286046996.9,N
1508286775.6,286046996.6,N
1508286795.5,286046995.2,N
1508286815.3,286046998.7,N
1508286835.1,286047000.9,N
1508286855.9,286046995.1,N
1508286875.7,286046995.4,N
1508286895.5,286047000.5,N
1508286915.4,286046999.1,N
1508286935.2,286046996.6,N
1508286955.0,286046995.4,N
1508286955.9,286046995.4,N
1508286975.8,286046995.9,N
1508286995.6,286046996.0,N
1508287015.4,286046990.7,N
1508287035.2,286046990.8,N
1508287055.1,286046990.3,N
1508287056.0,286046990.3,N
1508287075.8,286046989.4,N
1508287095.6,286046989.4,N
1508287115.5,286046986.6,Y
1508287135.3,286046989.4,P
1508287155.1,286046990.9,N
1508287175.9,286046992.3,N
1508287195.7,286046990.5,Y
1508287215.6,286046998.3,P
1508287235.4,286046996.7,N
1508287255.2,286046997.3,N
1508287275.0,286046995.4,N
1508287276.0,286046995.4,N
1508287295.8,286046992.2,Y
1508287315.6,286046999.5,P
1508287335.5,286046994.9,N
1508287355.3,286046991.9,P
1508287375.1,286046992.4,N
1508287395.9,286046992.8,N
1508287415.7,286046993.0,N
1508287435.5,286046991.7,Y
1508287455.4,286046998.7,P
1508287475.2,286047001.2,N
1508287495.0,286046998.2,N
1508287495.9,286046998.2,N
1508287515.8,286046997.1,N
1508287535.6,286047001.1,N
1508287555.4,286046998.5,N
1508287575.2,286046996.5,N
1508287595.1,286046999.1,N
1508287596.0,286046999.1,N
1508287615.8,286046998.9,N
1508287635.6,286047001.1,N
1508287655.5,286047000.4,N
1508287675.3,286046993.3,Y
1508287695.1,286046997.2,P
1508287715.9,286047003.9,P
1508287735.7,286047011.7,P
1508287755.5,286047011.2,N
1508287775.4,286047009.5,N
1508287795.2,286047013.5,N
1508287815.0,286047018.2,N
1508287815.9,286047018.2,N
1508287835.8,286047016.7,N
1508287855.6,286047015.7,N
1508287875.4,286047016.4,N
1508287895.3,286047016.9,N
1508287915.1,286047016.1,N
1508287916.0,286047016.1,N
1508287935.8,286047015.6,N
1508287955.7,286047018.8,N
1508287975.5,286047016.4,N
1508287995.3,286047018.1,N
1508288015.2,286047016.5,N
1508288035.9,286047016.8,N
1508288055.7,286047020.1,Y
1508288075.6,286047006.2,P
1508288095.4,286047008.3,N
1508288115.2,286047010.1,P
1508288135.1,286047010.8,Y
1508288136.0,286047010.8,P
1508288155.8,286046999.6,N
1508288175.6,286046997.3,N
1508288195.5,286046999.1,N
1508288215.3,286046995.3,N
1508288235.1,286046998.0,N
1508288255.9,286046995.9,N
1508288275.7,286046997.3,N
1508288295.5,286046996.9,N
1508288315.3,286046998.3,N
1508288335.2,286047000.7,N
1508288355.0,286047000.2,N
1508288355.9,286047000.2,N
1508288375.7,286047001.7,N
1508288395.6,286047002.8,N
